Location: Alpha Ridge Park
(39.3209°N, 76.9128°W)
Time: 23:05:26
(UTC-04:00)

S-56A Canister/Altair - Pass Details

Date: 25 May 2019
Orbit: 633 x 2499 km, 38.9° (Epoch: 16 June)

Event Time Altitude Azimuth Distance (km) Brightness Sun altitude
Rises 01:03:22 0° 221° (SW) 3,073 - -29.8°
Reaches altitude 10° 01:05:38 10° 212° (SSW) 2,277 - -29.8°
Maximum altitude 01:10:25 36° 146° (SE) 1,420 - -29.8°
Exits shadow 01:13:28 24° 100° (E) 2,011 9.5 -29.7°
Drops below altitude 10° 01:16:59 10° 83° (E) 3,160 10.7 -29.7°
Sets 01:20:40 0° 76° (ENE) 4,454 11.7 -29.7°
